DW8482 Tortoreto Alto IT current weather conditions

sailwx.info

Wind from 050 at 7 knots gusting 10

Air temperature 27.2° C
Dewpoint 20.5° C

Last reported at 2015-Aug-28 13:47 UTC.
Time now 2015-Aug-28 14:51 UTC

Location: N 42°48' E 013°54'.
View on Google Maps.

See reports from other nearby stations

  
Tides and Currents Weather Stations Pressure Air Temp Water Temp Dewpoint Dewpoint Depression Visibility Wind Speed Wind Dir Waves Ship Positions
date/time (UTC)wind fromknots sea level pressurealtimeterstation pressurevisibilityair tempwater tempwave heightnotes
2015-Aug-28 13:47 050 7 gusting 10 27.2
2015-Aug-28 13:37 077 6 gusting 10 27.2
2015-Aug-28 13:32 065 4 gusting 9 27.2
2015-Aug-28 13:27 068 6 gusting 11 27.2
2015-Aug-28 13:22 061 4 gusting 11 27.2
2015-Aug-28 13:12 090 6 gusting 10 27.2
2015-Aug-28 13:07 074 9 gusting 10 27.2
2015-Aug-28 13:02 061 3 gusting 11 27.2
2015-Aug-28 12:57 061 7 gusting 10 27.2
2015-Aug-28 12:42 041 10 gusting 10 27.8
2015-Aug-28 12:37 053 6 gusting 12 27.8
2015-Aug-28 12:32 058 10 gusting 11 27.8
2015-Aug-28 12:22 079 5 gusting 11 27.2
2015-Aug-28 12:12 068 11 gusting 13 27.8
2015-Aug-28 12:07 055 8 gusting 13 27.2
2015-Aug-28 12:02 058 6 gusting 13 27.8
2015-Aug-28 11:57 094 27.8
2015-Aug-28 11:47 034 5 gusting 11 27.8
2015-Aug-28 11:42 048 10 gusting 10 27.2
2015-Aug-28 11:37 055 7 gusting 10 27.2
2015-Aug-28 11:32 052 6 gusting 11 27.2
2015-Aug-28 11:17 055 7 gusting 12 27.8
2015-Aug-28 11:07 041 6 gusting 9 27.2
2015-Aug-28 10:57 049 4 gusting 10 27.2
2015-Aug-28 10:52 049 6 gusting 10 27.2
2015-Aug-28 10:47 054 6 gusting 9 27.2
2015-Aug-28 10:32 065 6 gusting 8 26.7
2015-Aug-28 10:27 091 6 gusting 9 26.7
2015-Aug-28 10:17 054 3 gusting 8 27.2
2015-Aug-28 10:07 082 6 gusting 10 27.2
2015-Aug-28 09:57 046 4 gusting 7 27.2
2015-Aug-28 09:47 071 8 gusting 9 26.7
2015-Aug-28 09:42 069 4 gusting 7 26.7
2015-Aug-28 09:37 073 4 gusting 8 26.7
2015-Aug-28 09:32 056 4 gusting 7 27.2
2015-Aug-28 09:27 042 6 gusting 8 27.2
2015-Aug-28 09:22 054 3 gusting 8 27.2
2015-Aug-28 09:17 067 3 gusting 6 27.2
2015-Aug-28 09:12 041 4 gusting 7 27.2
2015-Aug-28 09:07 061 6 gusting 7 27.2
2015-Aug-28 09:02 033 3 gusting 6 27.2
2015-Aug-28 08:52 084 27.2
2015-Aug-28 08:42 136 0 gusting 6 26.7
2015-Aug-28 08:32 092 2 gusting 5 26.7
2015-Aug-28 08:27 138 26.7
2015-Aug-28 08:17 149 2 gusting 4 26.1
2015-Aug-28 08:07 136 25.6
2015-Aug-28 08:02 103 25.6
2015-Aug-28 07:57 082 0 gusting 5 25.6
2015-Aug-28 07:52 094 5 gusting 5 25.6
2015-Aug-28 07:47 111 2 gusting 5 25.6
2015-Aug-28 07:37 119 2 gusting 6 25.6
2015-Aug-28 07:27 191 25.0
2015-Aug-28 07:17 128 3 gusting 5 25.0
2015-Aug-28 07:12 096 25.0
2015-Aug-28 07:07 083 0 gusting 6 25.0
2015-Aug-28 07:02 104 2 gusting 4 25.0
2015-Aug-28 06:57 113 2 gusting 5 25.0
2015-Aug-28 06:52 118 2 gusting 4 25.0
2015-Aug-28 06:42 123 25.0
2015-Aug-28 06:37 085 25.0
2015-Aug-28 06:27 113 1 gusting 2 25.0
2015-Aug-28 06:07 267 24.4
2015-Aug-28 05:52 267 25.6
2015-Aug-28 05:47 267 25.6
2015-Aug-28 05:37 267 24.4
2015-Aug-28 05:32 267 23.9
2015-Aug-28 05:27 267 23.3
2015-Aug-28 05:12 267 22.8
2015-Aug-28 05:07 267 22.8
2015-Aug-28 04:57 267 22.8
2015-Aug-28 04:47 254 22.2
2015-Aug-28 04:42 254 22.2
2015-Aug-28 04:37 254 22.2
2015-Aug-28 04:32 254 22.8
2015-Aug-28 04:12 254 22.2
2015-Aug-28 04:07 254 22.2
2015-Aug-28 03:52 254 22.8
2015-Aug-28 03:47 254 22.8
2015-Aug-28 03:42 254 22.8
2015-Aug-28 03:37 254 22.8
2015-Aug-28 03:27 254 22.8
2015-Aug-28 03:22 254 22.8
2015-Aug-28 03:17 254 22.8
2015-Aug-28 03:07 254 22.8
2015-Aug-28 02:57 254 22.8
2015-Aug-28 02:52 254 22.8
2015-Aug-28 02:47 254 23.3
2015-Aug-28 02:32 254 23.3
2015-Aug-28 02:27 254 23.3
2015-Aug-28 02:22 254 23.3
2015-Aug-28 02:17 254 23.3
2015-Aug-28 02:07 254 23.3
2015-Aug-28 02:02 254 23.3
2015-Aug-28 01:57 254 23.3
2015-Aug-28 01:52 254 23.3
2015-Aug-28 01:42 254 23.3
2015-Aug-28 01:37 254 23.3
2015-Aug-28 01:32 254 0 gusting 1 23.3
2015-Aug-28 01:27 254 0 gusting 2 23.3
2015-Aug-28 01:17 254 22.8
2015-Aug-28 01:12 254 2 gusting 2 22.8
2015-Aug-28 01:07 254 22.8
2015-Aug-28 00:57 254 2 gusting 3 22.2
2015-Aug-28 00:52 254 3 gusting 4 22.2
2015-Aug-28 00:47 254 3 gusting 4 22.2
2015-Aug-28 00:42 254 3 gusting 3 22.8
2015-Aug-28 00:37 254 2 gusting 3 22.8
2015-Aug-28 00:32 254 3 gusting 3 22.8
2015-Aug-28 00:07 254 4 gusting 6 22.2
2015-Aug-28 00:02 254 2 gusting 6 22.2
2015-Aug-27 23:57 242 4 gusting 6 22.2
2015-Aug-27 23:42 241 4 gusting 4 22.8
2015-Aug-27 23:37 240 4 gusting 6 22.8
2015-Aug-27 23:22 250 3 gusting 4 22.8
2015-Aug-27 23:12 250 2 gusting 4 22.8
2015-Aug-27 23:07 250 3 gusting 5 22.8
2015-Aug-27 23:02 250 4 gusting 4 22.8
2015-Aug-27 22:52 250 2 gusting 6 22.8
2015-Aug-27 22:47 249 4 gusting 6 22.8
2015-Aug-27 22:42 243 3 gusting 5 22.8
2015-Aug-27 22:32 241 3 gusting 4 22.8
2015-Aug-27 22:27 241 1 gusting 4 22.8
2015-Aug-27 22:17 238 1 gusting 4 22.8
2015-Aug-27 22:12 232 1 gusting 5 22.8
2015-Aug-27 22:02 247 2 gusting 4 22.8
2015-Aug-27 21:52 236 22.8
2015-Aug-27 21:47 217 22.8
2015-Aug-27 21:42 218 22.8
2015-Aug-27 21:32 195 22.8
2015-Aug-27 21:27 195 22.8
2015-Aug-27 21:22 191 22.8
2015-Aug-27 20:57 211 22.8
2015-Aug-27 20:52 184 22.8
2015-Aug-27 20:47 206 22.8
2015-Aug-27 20:17 083 22.8
2015-Aug-27 20:12 082 22.8
2015-Aug-27 20:07 082 22.8
2015-Aug-27 19:57 080 22.8
2015-Aug-27 19:52 080 22.8
2015-Aug-27 19:47 080 22.8
2015-Aug-27 19:37 080 22.8
2015-Aug-27 19:17 080 23.3
2015-Aug-27 19:07 080 23.3
2015-Aug-27 19:02 080 23.3
2015-Aug-27 18:57 080 23.3
2015-Aug-27 18:52 080 23.3
2015-Aug-27 18:37 080 23.3
2015-Aug-27 18:32 080 23.3
2015-Aug-27 18:27 080 23.3
2015-Aug-27 18:22 080 23.3
2015-Aug-27 18:12 080 23.3
2015-Aug-27 18:02 080 23.3
2015-Aug-27 17:57 080 23.3
2015-Aug-27 17:52 080 23.3
2015-Aug-27 17:47 080 23.3
2015-Aug-27 17:42 080 23.3
2015-Aug-27 17:37 080 23.3
2015-Aug-27 17:32 080 23.3
2015-Aug-27 17:27 080 23.9
2015-Aug-27 17:17 080 2 gusting 5 23.9
2015-Aug-27 17:12 046 23.9
2015-Aug-27 17:07 073 0 gusting 4 23.9
2015-Aug-27 17:02 070 3 gusting 3 23.9
2015-Aug-27 16:57 070 3 gusting 4 24.4
2015-Aug-27 16:37 060 3 gusting 6 24.4
2015-Aug-27 16:27 059 4 gusting 6 24.4
2015-Aug-27 16:22 071 3 gusting 6 25.0
2015-Aug-27 16:17 081 0 gusting 6 25.0
2015-Aug-27 16:07 067 6 gusting 6 25.0
2015-Aug-27 16:02 055 5 gusting 7 25.0
2015-Aug-27 15:57 072 6 gusting 7 25.0
2015-Aug-27 15:47 059 4 gusting 7 25.0
2015-Aug-27 15:42 071 6 gusting 8 25.0
2015-Aug-27 15:27 084 6 gusting 8 25.0
2015-Aug-27 15:22 068 6 gusting 9 25.6
2015-Aug-27 15:17 050 3 gusting 10 25.6
2015-Aug-27 15:07 044 7 gusting 9 25.6
2015-Aug-27 14:57 052 8 gusting 10 25.6
2015-Aug-27 14:52 084 25.6
2015-Aug-27 14:47 071 6 gusting 11 25.6
2015-Aug-27 14:42 050 7 gusting 10 25.0
2015-Aug-27 14:32 071 6 gusting 9 25.6
2015-Aug-27 14:27 060 8 gusting 10 26.1
2015-Aug-27 14:17 052 4 gusting 9 26.1
2015-Aug-27 14:12 065 7 gusting 10 26.1
2015-Aug-27 14:07 067 9 gusting 9 26.1
2015-Aug-27 13:52 057 10 gusting 11 26.7
2015-Aug-27 13:42 031 6 gusting 13 25.6
2015-Aug-27 13:37 046 8 gusting 11 26.1
2015-Aug-27 13:32 036 6 gusting 12 26.1
2015-Aug-27 13:27 075 7 gusting 13 26.1
2015-Aug-27 13:07 067 6 gusting 11 26.1
2015-Aug-27 12:57 065 4 gusting 11 26.1
2015-Aug-27 12:52 049 6 gusting 12 26.1
2015-Aug-27 12:47 045 6 gusting 11 26.7
2015-Aug-27 12:42 044 6 gusting 11 26.7
2015-Aug-27 12:32 067 6 gusting 10 26.7
2015-Aug-27 12:27 040 7 gusting 11 26.1
2015-Aug-27 12:22 076 4 gusting 11 26.1
2015-Aug-27 12:17 059 8 gusting 10 26.7
2015-Aug-27 12:12 044 6 gusting 11 26.7
2015-Aug-27 12:07 056 6 gusting 11 26.1
2015-Aug-27 12:02 044 2 gusting 11 26.1
2015-Aug-27 11:57 054 9 gusting 9 26.1
2015-Aug-27 11:47 056 3 gusting 10 26.7
2015-Aug-27 11:42 050 7 gusting 8 26.7
2015-Aug-27 11:37 046 6 gusting 10 26.1
2015-Aug-27 11:32 040 7 gusting 9 26.1
2015-Aug-27 11:27 045 6 gusting 10 26.1
2015-Aug-27 11:22 072 2 gusting 10 26.7
2015-Aug-27 11:17 064 7 gusting 9 26.1
2015-Aug-27 11:07 074 4 gusting 8 26.7
2015-Aug-27 11:02 068 7 gusting 10 26.1
2015-Aug-27 10:52 057 6 gusting 9 26.7
2015-Aug-27 10:32 046 7 gusting 10 26.1
2015-Aug-27 10:27 044 6 gusting 10 26.7
2015-Aug-27 10:17 059 7 gusting 8 26.1
2015-Aug-27 10:12 045 4 gusting 7 26.1
2015-Aug-27 10:07 053 6 gusting 8 26.1
2015-Aug-27 10:02 061 6 gusting 8 26.1
2015-Aug-27 09:52 062 6 gusting 10 26.1
2015-Aug-27 09:42 053 7 gusting 11 26.1
2015-Aug-27 09:37 061 3 gusting 10 26.1
2015-Aug-27 09:27 066 2 gusting 7 25.6
2015-Aug-27 09:22 053 3 gusting 7 26.1
2015-Aug-27 09:17 044 5 gusting 7 25.6
2015-Aug-27 09:12 078 26.1
2015-Aug-27 09:07 048 4 gusting 6 26.1
2015-Aug-27 09:02 055 6 gusting 7 25.6
2015-Aug-27 08:47 036 5 gusting 8 25.6
2015-Aug-27 08:27 034 4 gusting 6 25.0
2015-Aug-27 08:22 082 2 gusting 7 25.6
2015-Aug-27 08:17 046 6 gusting 6 25.0
2015-Aug-27 08:12 066 3 gusting 6 25.0
2015-Aug-27 07:57 065 3 gusting 6 25.0
2015-Aug-27 07:52 050 0 gusting 5 25.6
2015-Aug-27 07:47 055 2 gusting 5 25.6
2015-Aug-27 07:42 055 3 gusting 4 25.0
2015-Aug-27 07:37 055 25.0
2015-Aug-27 07:27 055 25.0
2015-Aug-27 07:22 053 25.0
2015-Aug-27 07:17 053 1 gusting 1 25.6
2015-Aug-27 07:07 055 25.0
2015-Aug-27 07:02 055 25.0
2015-Aug-27 06:57 055 25.0
2015-Aug-27 06:52 055 24.4
2015-Aug-27 06:47 055 24.4
2015-Aug-27 06:42 022 24.4
2015-Aug-27 06:37 021 2 gusting 2 24.4
2015-Aug-27 06:27 265 24.4
2015-Aug-27 06:22 265 24.4
2015-Aug-27 06:17 265 24.4
2015-Aug-27 06:12 265 23.9
2015-Aug-27 06:02 265 23.3
2015-Aug-27 05:57 265 23.3
2015-Aug-27 05:47 261 22.8
2015-Aug-27 05:42 261 22.2
2015-Aug-27 05:37 261 0 gusting 1 22.2
2015-Aug-27 05:32 261 1 gusting 3 22.2
2015-Aug-27 05:27 261 1 gusting 2 22.2
2015-Aug-27 05:22 261 1 gusting 2 22.2
2015-Aug-27 05:12 261 2 gusting 2 22.2
2015-Aug-27 05:07 261 0 gusting 1 22.2
2015-Aug-27 04:57 261 22.2
2015-Aug-27 04:47 261 0 gusting 1 21.7
2015-Aug-27 04:42 261 1 gusting 1 21.7
2015-Aug-27 04:37 261 0 gusting 1 21.7
2015-Aug-27 04:32 261 1 gusting 2 21.7
2015-Aug-27 04:17 261 0 gusting 2 21.7
2015-Aug-27 04:02 261 3 gusting 3 21.1
2015-Aug-27 03:47 261 3 gusting 4 21.1
2015-Aug-27 03:42 261 2 gusting 4 21.1
2015-Aug-27 03:37 232 3 gusting 4 21.1
2015-Aug-27 03:32 232 21.7
2015-Aug-27 03:27 232 1 gusting 2 21.1
2015-Aug-27 03:22 232 1 gusting 2 21.1
2015-Aug-27 03:17 232 1 gusting 3 21.7
2015-Aug-27 03:12 232 2 gusting 3 21.7
2015-Aug-27 03:07 232 0 gusting 3 21.7
2015-Aug-27 03:02 232 1 gusting 3 21.7
2015-Aug-27 02:57 232 0 gusting 3 21.7
2015-Aug-27 02:52 232 2 gusting 3 21.7
2015-Aug-27 02:47 232 2 gusting 4 22.2
2015-Aug-27 02:37 232 2 gusting 3 22.2
2015-Aug-27 02:22 232 2 gusting 4 22.2
2015-Aug-27 02:17 232 0 gusting 3 22.2
2015-Aug-27 02:07 232 0 gusting 4 22.2
2015-Aug-27 01:57 232 1 gusting 3 22.2
2015-Aug-27 01:42 236 3 gusting 4 22.2
2015-Aug-27 01:37 238 1 gusting 2 22.2
2015-Aug-27 01:32 238 1 gusting 3 22.2
2015-Aug-27 01:22 238 1 gusting 2 22.2
2015-Aug-27 01:12 238 1 gusting 2 22.2
2015-Aug-27 01:02 238 22.2
2015-Aug-27 00:57 238 22.2
2015-Aug-27 00:52 238 22.2
2015-Aug-27 00:47 238 22.2
2015-Aug-27 00:42 238 1 gusting 2 22.2
2015-Aug-27 00:37 238 2 gusting 2 22.2
2015-Aug-27 00:32 238 2 gusting 3 22.2
2015-Aug-27 00:27 238 1 gusting 3 22.2
2015-Aug-27 00:12 238 1 gusting 2 22.2
2015-Aug-27 00:07 238 1 gusting 2 22.2
2015-Aug-27 00:02 238 1 gusting 3 22.2
2015-Aug-26 23:57 238 2 gusting 3 22.2
2015-Aug-26 23:47 238 1 gusting 2 22.8
2015-Aug-26 23:42 238 2 gusting 2 22.8
2015-Aug-26 23:37 238 1 gusting 2 22.8
2015-Aug-26 23:32 238 22.8
2015-Aug-26 23:27 238 22.8
2015-Aug-26 23:17 238 22.2
2015-Aug-26 22:57 238 22.2
2015-Aug-26 22:52 238 22.2
2015-Aug-26 22:47 238 22.2
2015-Aug-26 22:37 238 22.2
2015-Aug-26 22:22 237 4 gusting 3 22.2
2015-Aug-26 22:17 334 22.8
2015-Aug-26 22:12 334 1 gusting 1 22.8
2015-Aug-26 22:07 334 22.8
2015-Aug-26 21:57 334 22.8
2015-Aug-26 21:52 334 22.8
2015-Aug-26 21:42 334 22.8
2015-Aug-26 21:37 334 22.8
2015-Aug-26 21:32 334 22.8
2015-Aug-26 21:27 334 22.8
2015-Aug-26 21:22 334 22.8
2015-Aug-26 21:17 334 22.8
2015-Aug-26 21:12 334 22.8
2015-Aug-26 21:02 334 23.3
2015-Aug-26 20:32 334 0 gusting 2 22.8
2015-Aug-26 20:27 334 22.8
2015-Aug-26 20:17 334 2 gusting 4 22.8
2015-Aug-26 20:12 334 0 gusting 2 22.8
2015-Aug-26 20:07 334 22.8
2015-Aug-26 20:02 334 2 gusting 3 22.8
2015-Aug-26 19:57 334 0 gusting 3 22.8
2015-Aug-26 19:52 334 22.8
2015-Aug-26 19:47 334 2 gusting 4 22.8
2015-Aug-26 19:37 328 0 gusting 4 22.8
2015-Aug-26 19:22 339 22.8
2015-Aug-26 19:17 339 22.2
2015-Aug-26 19:07 339 22.8
2015-Aug-26 18:52 339 22.8
2015-Aug-26 18:47 338 0 gusting 4 22.8
2015-Aug-26 18:37 338 3 gusting 4 22.8
2015-Aug-26 18:32 341 3 gusting 5 22.8
2015-Aug-26 18:27 339 2 gusting 4 22.8
2015-Aug-26 18:22 331 0 gusting 3 22.8
2015-Aug-26 18:17 338 1 gusting 4 22.8
2015-Aug-26 18:12 344 22.8
2015-Aug-26 18:07 344 1 gusting 5 22.8
2015-Aug-26 18:02 335 22.8
2015-Aug-26 17:52 331 22.8
2015-Aug-26 17:47 348 2 gusting 5 22.8
2015-Aug-26 17:42 034 22.8
2015-Aug-26 17:22 030 4 gusting 6 23.3
2015-Aug-26 17:17 013 6 gusting 6 23.3
2015-Aug-26 17:07 017 6 gusting 6 23.3
2015-Aug-26 17:02 034 4 gusting 6 23.3
2015-Aug-26 16:52 032 4 gusting 8 23.3
2015-Aug-26 16:47 005 6 gusting 9 23.9
2015-Aug-26 16:37 017 6 gusting 8 23.9
2015-Aug-26 16:32 027 2 gusting 7 23.9
2015-Aug-26 16:22 035 7 gusting 10 23.9
2015-Aug-26 16:17 028 6 gusting 9 23.9
2015-Aug-26 16:12 037 8 gusting 10 24.4
2015-Aug-26 16:07 056 5 gusting 9 24.4
2015-Aug-26 16:02 015 4 gusting 13 24.4
2015-Aug-26 15:57 351 6 gusting 10 24.4
2015-Aug-26 15:52 035 4 gusting 11 24.4
2015-Aug-26 15:47 032 10 gusting 12 24.4
2015-Aug-26 15:42 100 6 gusting 10 24.4
2015-Aug-26 15:32 025 7 gusting 10 24.4
2015-Aug-26 15:27 060 9 gusting 11 24.4
2015-Aug-26 15:22 020 11 gusting 11 24.4
2015-Aug-26 15:17 048 11 gusting 13 25.0
2015-Aug-26 15:12 052 9 gusting 13 25.0
2015-Aug-26 15:07 059 7 gusting 12 24.4
2015-Aug-26 14:52 040 4 gusting 11 25.6
2015-Aug-26 14:47 040 8 gusting 11 25.6
2015-Aug-26 14:22 044 6 gusting 13 25.0
2015-Aug-26 14:12 040 6 gusting 12 25.0
2015-Aug-26 14:07 060 11 gusting 13 25.0
2015-Aug-26 14:02 026 8 gusting 13 24.4